Weather History for KLBT - March, 2014

Change the Weather History Date:

Saturday, March 8, 2014

  Actual Average Record
Temperature  
Mean Temperature 48 °F 52 °F  
Max Temperature 66 °F 64 °F 80 °F (2009)
Min Temperature 29 °F 40 °F 26 °F (2001)
Degree Days  
Heating Degree Days 17 13  
Month to date heating degree days 188 114  
Since 1 July heating degree days 2484 2344  
Cooling Degree Days 0 0  
Month to date cooling degree days 0 0  
Year to date cooling degree days 1 3  
Moisture  
Dew Point 39 °F    
Average Humidity 72    
Maximum Humidity 100    
Minimum Humidity 44    
Precipitation  
Precipitation 0.00 in 0.11 in 0.29 in (2005)
Month to date precipitation 1.71 0.90  
Year to date precipitation 7.78 6.77  
Sea Level Pressure  
Sea Level Pressure 30.04 in    
Wind  
Wind Speed 6 mph (WSW)    
Max Wind Speed 15 mph    
Max Gust Speed 18 mph    
Visibility 9 miles    
Events      
T = Trace of Precipitation, MM = Missing Value Source: NWS Daily Summary

Daily Weather History Graph

Daily Weather History Graph

Search for Another Location

Airport or City:

Trip Planner

Search our weather history database for the weather conditions in past years. The results will help you decide how hot, cold, wet, or windy it might be!

Date:

Astronomy

Mar. 08, 2014 Rise Set
Actual Time 6:36 AM EST 6:18 PM EST
Civil Twilight 6:11 AM EST 6:43 PM EST
Nautical Twilight 5:42 AM EST 7:12 PM EST
Astronomical Twilight 5:12 AM EST 7:41 PM EST
Moon 11:31 AM EST (3/8) 12:59 AM EST (3/8)
Length of Visible Light 12h 32m
Length of Day
11h 41m
First Quarter, 51% of the Moon is Illuminated
Mar 8
First Quarter
Mar 16
Full
Mar 23
Last Quarter
Mar 30
New
Apr 7
First Quarter

Hourly Weather History & Observations

Time (EST) Temp. Windchill Dew Point Humidity Pressure Visibility Wind Dir Wind Speed Gust Speed Precip Events Conditions
12:54 AM 34.0 °F 31.0 °F 32.0 °F 92% 29.97 in 10.0 mi NW 3.5 mph - N/A   Clear
1:54 AM 33.1 °F 27.7 °F 30.9 °F 92% 30.01 in 10.0 mi West 5.8 mph - N/A   Clear
2:54 AM 33.1 °F 27.7 °F 32.0 °F 96% 30.02 in 10.0 mi WNW 5.8 mph - N/A   Clear
3:54 AM 33.1 °F - 32.0 °F 96% 30.01 in 9.0 mi Calm Calm - N/A   Clear
4:54 AM 32.0 °F - 30.9 °F 96% 30.03 in 6.0 mi Calm Calm - N/A   Clear
5:54 AM 28.9 °F 25.2 °F 28.0 °F 96% 30.04 in 2.5 mi WSW 3.5 mph - N/A   Clear
6:05 AM 28.9 °F 23.9 °F 28.0 °F 96% 30.04 in 4.0 mi West 4.6 mph - N/A   Clear
6:54 AM 30.9 °F 27.5 °F 30.0 °F 96% 30.06 in 5.0 mi West 3.5 mph - N/A   Clear
7:54 AM 36.0 °F 31.1 °F 34.0 °F 93% 30.09 in 9.0 mi West 5.8 mph - N/A   Clear
8:54 AM 45.0 °F 41.2 °F 37.9 °F 76% 30.11 in 10.0 mi West 6.9 mph - N/A   Clear
9:54 AM 51.1 °F - 42.1 °F 71% 30.11 in 10.0 mi WNW 9.2 mph - N/A   Clear
10:54 AM 55.0 °F - 44.1 °F 67% 30.09 in 10.0 mi WSW 6.9 mph - N/A   Clear
11:54 AM 59.0 °F - 46.0 °F 62% 30.08 in 10.0 mi WSW 10.4 mph - N/A   Clear
12:54 PM 62.1 °F - 46.0 °F 56% 30.06 in 10.0 mi WSW 11.5 mph - N/A   Clear
1:54 PM 63.0 °F - 45.0 °F 52% 30.03 in 10.0 mi SW 6.9 mph - N/A   Clear
2:54 PM 64.9 °F - 46.0 °F 50% 30.01 in 10.0 mi WSW 6.9 mph - N/A   Clear
3:54 PM 64.9 °F - 44.1 °F 47% 30.00 in 10.0 mi SW 9.2 mph - N/A   Clear
4:54 PM 64.9 °F - 43.0 °F 45% 30.00 in 10.0 mi SW 8.1 mph - N/A   Clear
5:54 PM 63.0 °F - 43.0 °F 48% 30.01 in 10.0 mi SW 4.6 mph - N/A   Clear
6:54 PM 57.0 °F - 43.0 °F 59% 30.03 in 10.0 mi SSW 4.6 mph - N/A   Clear
7:54 PM 53.1 °F - 43.0 °F 69% 30.03 in 10.0 mi SSW 5.8 mph - N/A   Clear
8:54 PM 54.0 °F - 43.0 °F 66% 30.04 in 10.0 mi SSW 5.8 mph - N/A   Clear
9:54 PM 55.0 °F - 43.0 °F 64% 30.03 in 10.0 mi SSW 5.8 mph - N/A   Clear
10:54 PM 54.0 °F - 43.0 °F 66% 30.02 in 10.0 mi SSW 6.9 mph - N/A   Clear
11:54 PM 54.0 °F - 44.1 °F 69% 30.01 in 10.0 mi SW 8.1 mph - N/A   Clear